GLD1154 SBSP-SBBR

Flight info

Callsign GLD1154
Flight time 1h 25m
Altitude 32000
Route GERTU UZ25 PABIN
Aircraft B738/M-SDFGIRY/S

Departure

Time 2026-05-03 21:33
Airport Congonhas–Deputado Freitas Nobre Airport (SBSP)

Arrival

Time 2026-05-03 22:59
Airport Presidente Juscelino Kubitschek International Airport (SBBR)
Time Latitude Longitude Altitude Speed Heading
2026-05-03 21:20 -23.62657 -46.65863 2600 ft 0 kts 237°
2026-05-03 21:24 -23.62656 -46.65861 2600 ft 2 kts 237°
2026-05-03 21:25 -23.62646 -46.65837 2600 ft 4 kts 272°
2026-05-03 21:25 -23.62654 -46.65812 2600 ft 4 kts 316°
2026-05-03 21:25 -23.62667 -46.65801 2600 ft 0 kts 328°
2026-05-03 21:28 -23.62663 -46.65802 2600 ft 4 kts 338°
2026-05-03 21:28 -23.62580 -46.65825 2600 ft 20 kts 348°
2026-05-03 21:28 -23.62459 -46.65897 2600 ft 20 kts 327°
2026-05-03 21:28 -23.62347 -46.65976 2599 ft 19 kts 327°
2026-05-03 21:29 -23.62236 -46.66047 2599 ft 18 kts 335°
2026-05-03 21:29 -23.62152 -46.66103 2590 ft 9 kts 328°
2026-05-03 21:29 -23.62130 -46.66119 2593 ft 0 kts 327°
2026-05-03 21:32 -23.62118 -46.66127 2593 ft 5 kts 331°
2026-05-03 21:32 -23.62065 -46.66125 2596 ft 11 kts 33°
2026-05-03 21:32 -23.62075 -46.66057 2595 ft 11 kts 146°
2026-05-03 21:32 -23.62081 -46.66053 2595 ft 0 kts 147°
2026-05-03 21:33 -23.62115 -46.66029 2596 ft 31 kts 147°
2026-05-03 21:33 -23.62525 -46.65744 2603 ft 107 kts 147°
2026-05-03 21:33 -23.63350 -46.65179 2647 ft 168 kts 149°
2026-05-03 21:33 -23.64358 -46.64516 3622 ft 167 kts 148°
2026-05-03 21:34 -23.65330 -46.63886 4716 ft 168 kts 148°
2026-05-03 21:34 -23.66459 -46.63399 5226 ft 191 kts 176°
2026-05-03 21:34 -23.67847 -46.63772 5437 ft 219 kts 196°
2026-05-03 21:34 -23.69402 -46.64178 5673 ft 240 kts 188°
2026-05-03 21:35 -23.71113 -46.64447 5998 ft 260 kts 185°
2026-05-03 21:35 -23.72969 -46.64654 6550 ft 274 kts 184°
2026-05-03 21:35 -23.74870 -46.64994 7158 ft 279 kts 201°
2026-05-03 21:35 -23.76462 -46.66173 7462 ft 280 kts 230°
2026-05-03 21:36 -23.77381 -46.68020 7483 ft 278 kts 256°
2026-05-03 21:36 -23.77496 -46.70115 7498 ft 279 kts 274°
2026-05-03 21:36 -23.77758 -46.72197 7465 ft 276 kts 244°
2026-05-03 21:36 -23.78769 -46.73917 7481 ft 266 kts 235°
2026-05-03 21:37 -23.79847 -46.75534 7676 ft 267 kts 233°
2026-05-03 21:37 -23.80960 -46.77179 8314 ft 269 kts 234°
2026-05-03 21:37 -23.82049 -46.78845 9033 ft 269 kts 236°
2026-05-03 21:37 -23.83111 -46.80532 9718 ft 271 kts 237°
2026-05-03 21:38 -23.84171 -46.82251 10344 ft 274 kts 237°
2026-05-03 21:38 -23.85233 -46.83989 10941 ft 276 kts 237°
2026-05-03 21:38 -23.86299 -46.85768 11353 ft 287 kts 242°
2026-05-03 21:38 -23.86878 -46.87904 11444 ft 305 kts 269°
2026-05-03 21:39 -23.86432 -46.90209 11580 ft 322 kts 295°
2026-05-03 21:39 -23.85316 -46.92396 11711 ft 337 kts 300°
2026-05-03 21:39 -23.84071 -46.94633 11887 ft 349 kts 300°
2026-05-03 21:39 -23.82795 -46.96909 12255 ft 353 kts 300°
2026-05-03 21:40 -23.81516 -46.99211 12772 ft 358 kts 300°
2026-05-03 21:40 -23.80316 -47.01392 13471 ft 359 kts 299°
2026-05-03 21:40 -23.79033 -47.03743 14183 ft 362 kts 299°
2026-05-03 21:40 -23.77762 -47.06084 14787 ft 364 kts 299°
2026-05-03 21:41 -23.76466 -47.08469 15443 ft 366 kts 298°
2026-05-03 21:41 -23.75094 -47.10807 16086 ft 370 kts 307°
2026-05-03 21:41 -23.73103 -47.12627 16680 ft 379 kts 326°
2026-05-03 21:41 -23.70608 -47.13688 17180 ft 393 kts 343°
2026-05-03 21:42 -23.67906 -47.14267 17673 ft 399 kts 345°
2026-05-03 21:42 -23.65155 -47.14810 18182 ft 403 kts 345°
2026-05-03 21:42 -23.62389 -47.15381 18672 ft 406 kts 344°
2026-05-03 21:42 -23.59603 -47.15982 19150 ft 408 kts 343°
2026-05-03 21:43 -23.56814 -47.16594 19639 ft 411 kts 343°
2026-05-03 21:43 -23.54001 -47.17213 20102 ft 413 kts 343°
2026-05-03 21:43 -23.51171 -47.17835 20557 ft 416 kts 343°
2026-05-03 21:43 -23.48331 -47.18459 21076 ft 417 kts 342°
2026-05-03 21:44 -23.45479 -47.19084 21556 ft 418 kts 342°
2026-05-03 21:44 -23.42615 -47.19712 21996 ft 422 kts 342°
2026-05-03 21:44 -23.39727 -47.20345 22430 ft 424 kts 342°
2026-05-03 21:44 -23.36817 -47.20981 22859 ft 428 kts 342°
2026-05-03 21:45 -23.33894 -47.21620 23289 ft 430 kts 342°
2026-05-03 21:45 -23.30954 -47.22262 23734 ft 432 kts 342°
2026-05-03 21:45 -23.28037 -47.22899 24107 ft 433 kts 342°
2026-05-03 21:45 -23.25087 -47.23542 24552 ft 432 kts 342°
2026-05-03 21:46 -23.22128 -47.24186 24944 ft 433 kts 341°
2026-05-03 21:46 -23.19159 -47.24834 25273 ft 435 kts 341°
2026-05-03 21:46 -23.16188 -47.25481 25611 ft 437 kts 341°
2026-05-03 21:46 -23.13199 -47.26132 25975 ft 438 kts 341°
2026-05-03 21:47 -23.10209 -47.26783 26324 ft 439 kts 341°
2026-05-03 21:47 -23.07205 -47.27436 26650 ft 441 kts 341°
2026-05-03 21:47 -23.04196 -47.28091 26990 ft 442 kts 341°
2026-05-03 21:47 -23.01172 -47.28747 27322 ft 443 kts 341°
2026-05-03 21:48 -22.98150 -47.29404 27647 ft 444 kts 341°
2026-05-03 21:48 -22.95123 -47.30060 28053 ft 443 kts 341°
2026-05-03 21:48 -22.92106 -47.30713 28544 ft 440 kts 341°
2026-05-03 21:48 -22.89117 -47.31359 29065 ft 436 kts 341°
2026-05-03 21:49 -22.86147 -47.32002 29549 ft 434 kts 341°
2026-05-03 21:49 -22.83187 -47.32645 29958 ft 433 kts 341°
2026-05-03 21:49 -22.80235 -47.33286 30349 ft 432 kts 341°
2026-05-03 21:49 -22.77291 -47.33924 30723 ft 431 kts 341°
2026-05-03 21:50 -22.74394 -47.34552 31078 ft 430 kts 340°
2026-05-03 21:50 -22.71465 -47.35186 31402 ft 430 kts 340°
2026-05-03 21:50 -22.68540 -47.35853 31702 ft 426 kts 336°
2026-05-03 21:50 -22.65872 -47.37088 31965 ft 411 kts 321°
2026-05-03 21:51 -22.63579 -47.38897 32135 ft 408 kts 315°
2026-05-03 21:51 -22.61350 -47.40806 32144 ft 409 kts 315°
2026-05-03 21:51 -22.56894 -47.44630 32134 ft 405 kts 315°
2026-05-03 21:52 -22.52463 -47.48360 32149 ft 404 kts 316°
2026-05-03 21:52 -22.48005 -47.52084 32146 ft 405 kts 316°
2026-05-03 21:53 -22.43434 -47.55666 32115 ft 413 kts 327°
2026-05-03 21:53 -22.40693 -47.56740 32139 ft 427 kts 341°
2026-05-03 21:53 -22.37784 -47.57288 32160 ft 431 kts 343°
2026-05-03 21:54 -22.31827 -47.58216 32139 ft 433 kts 344°
2026-05-03 21:54 -22.25845 -47.59150 32133 ft 434 kts 343°
2026-05-03 21:55 -22.19876 -47.60128 32122 ft 435 kts 343°
2026-05-03 21:55 -22.13894 -47.61129 32127 ft 435 kts 343°
2026-05-03 21:56 -22.07905 -47.62133 32122 ft 435 kts 343°
2026-05-03 21:56 -22.01924 -47.63134 32127 ft 434 kts 343°
2026-05-03 21:57 -21.95987 -47.64125 32127 ft 432 kts 344°
2026-05-03 21:57 -21.90047 -47.65118 32117 ft 432 kts 344°
2026-05-03 21:58 -21.84089 -47.66113 32114 ft 433 kts 344°
2026-05-03 21:58 -21.78161 -47.67102 32102 ft 434 kts 344°
2026-05-03 21:59 -21.72185 -47.68097 32106 ft 435 kts 344°
2026-05-03 21:59 -21.66202 -47.69093 32108 ft 435 kts 344°
2026-05-03 22:00 -21.60208 -47.70090 32102 ft 436 kts 344°
2026-05-03 22:00 -21.54200 -47.71077 32103 ft 436 kts 344°
2026-05-03 22:01 -21.48189 -47.72059 32084 ft 437 kts 344°
2026-05-03 22:01 -21.42176 -47.73042 32082 ft 437 kts 344°
2026-05-03 22:02 -21.36200 -47.74019 32079 ft 437 kts 344°
2026-05-03 22:02 -21.30170 -47.75004 32079 ft 437 kts 344°
2026-05-03 22:03 -21.24149 -47.75987 32070 ft 437 kts 344°
2026-05-03 22:03 -21.18129 -47.76970 32075 ft 437 kts 344°
2026-05-03 22:04 -21.12150 -47.77925 32075 ft 438 kts 345°
2026-05-03 22:04 -21.06082 -47.78755 32063 ft 439 kts 346°
2026-05-03 22:05 -21.00020 -47.79554 32071 ft 439 kts 346°
2026-05-03 22:05 -20.94981 -47.80229 32069 ft 439 kts 346°
2026-05-03 22:06 -20.87918 -47.81187 32072 ft 439 kts 346°
2026-05-03 22:06 -20.82830 -47.81879 32065 ft 440 kts 346°
2026-05-03 22:07 -20.76753 -47.82705 32055 ft 440 kts 346°
2026-05-03 22:07 -20.70676 -47.83531 32066 ft 441 kts 346°
2026-05-03 22:08 -20.64593 -47.84356 32059 ft 441 kts 346°
2026-05-03 22:08 -20.58526 -47.85178 32051 ft 441 kts 346°
2026-05-03 22:09 -20.52429 -47.86003 32064 ft 441 kts 346°
2026-05-03 22:10 -20.43284 -47.87241 32059 ft 442 kts 346°
2026-05-03 22:10 -20.37169 -47.88067 32050 ft 443 kts 346°
2026-05-03 22:11 -20.31061 -47.88894 32043 ft 443 kts 346°
2026-05-03 22:11 -20.24942 -47.89724 32041 ft 443 kts 346°
2026-05-03 22:12 -20.18823 -47.90554 32040 ft 443 kts 346°
2026-05-03 22:12 -20.12698 -47.91384 32036 ft 444 kts 346°
2026-05-03 22:13 -20.06578 -47.92212 32048 ft 443 kts 346°
2026-05-03 22:13 -20.00492 -47.93035 32070 ft 444 kts 346°
2026-05-03 22:14 -19.94361 -47.93863 32082 ft 444 kts 346°
2026-05-03 22:14 -19.88231 -47.94691 32098 ft 444 kts 347°
2026-05-03 22:15 -19.82098 -47.95519 32092 ft 444 kts 347°
2026-05-03 22:15 -19.75968 -47.96345 32108 ft 444 kts 347°
2026-05-03 22:16 -19.69841 -47.97170 32135 ft 444 kts 347°
2026-05-03 22:16 -19.63741 -47.97991 32056 ft 445 kts 347°
2026-05-03 22:17 -19.57595 -47.98818 32057 ft 445 kts 347°
2026-05-03 22:17 -19.51439 -47.99645 32062 ft 445 kts 347°
2026-05-03 22:18 -19.45440 -48.00451 32064 ft 445 kts 347°
2026-05-03 22:18 -19.39293 -48.01276 32060 ft 445 kts 347°
2026-05-03 22:19 -19.33142 -48.02101 32063 ft 445 kts 347°
2026-05-03 22:19 -19.26999 -48.02935 32058 ft 445 kts 347°
2026-05-03 22:20 -19.20865 -48.03802 32064 ft 444 kts 347°
2026-05-03 22:20 -19.14734 -48.04671 32061 ft 444 kts 347°
2026-05-03 22:21 -19.08609 -48.05534 32053 ft 444 kts 347°
2026-05-03 22:21 -19.02491 -48.06394 32059 ft 443 kts 347°
2026-05-03 22:22 -18.96382 -48.07252 32132 ft 443 kts 347°
2026-05-03 22:22 -18.90302 -48.08106 32141 ft 444 kts 347°
2026-05-03 22:23 -18.84147 -48.08800 32136 ft 445 kts 349°
2026-05-03 22:23 -18.77967 -48.09400 32136 ft 446 kts 349°
2026-05-03 22:24 -18.71779 -48.10020 32109 ft 447 kts 349°
2026-05-03 22:24 -18.65595 -48.10659 32088 ft 446 kts 349°
2026-05-03 22:25 -18.59419 -48.11300 32066 ft 445 kts 349°
2026-05-03 22:25 -18.53255 -48.11940 32043 ft 446 kts 349°
2026-05-03 22:26 -18.47071 -48.12580 32043 ft 447 kts 349°
2026-05-03 22:26 -18.40914 -48.13217 32038 ft 447 kts 349°
2026-05-03 22:27 -18.34709 -48.13860 32032 ft 448 kts 350°
2026-05-03 22:27 -18.28498 -48.14503 32036 ft 449 kts 350°
2026-05-03 22:28 -18.22270 -48.15148 32036 ft 449 kts 350°
2026-05-03 22:28 -18.16046 -48.15790 32036 ft 450 kts 350°
2026-05-03 22:29 -18.09820 -48.16431 32028 ft 450 kts 350°
2026-05-03 22:29 -18.03587 -48.17073 32037 ft 450 kts 350°
2026-05-03 22:30 -17.97368 -48.17713 32034 ft 450 kts 350°
2026-05-03 22:30 -17.91176 -48.18350 32034 ft 450 kts 350°
2026-05-03 22:31 -17.84953 -48.18989 32017 ft 444 kts 350°
2026-05-03 22:31 -17.81926 -48.19297 31973 ft 432 kts 350°
2026-05-03 22:31 -17.78943 -48.19567 31614 ft 429 kts 355°
2026-05-03 22:31 -17.75967 -48.19432 31281 ft 427 kts
2026-05-03 22:32 -17.73023 -48.19101 30902 ft 425 kts
2026-05-03 22:32 -17.70089 -48.18715 30521 ft 423 kts
2026-05-03 22:32 -17.67176 -48.18329 30110 ft 421 kts
2026-05-03 22:32 -17.64307 -48.17964 29674 ft 418 kts
2026-05-03 22:33 -17.61428 -48.17617 29236 ft 415 kts
2026-05-03 22:33 -17.58570 -48.17287 28817 ft 411 kts
2026-05-03 22:33 -17.55736 -48.16968 28414 ft 408 kts
2026-05-03 22:33 -17.52921 -48.16657 28011 ft 405 kts
2026-05-03 22:34 -17.50120 -48.16349 27608 ft 402 kts
2026-05-03 22:34 -17.47345 -48.16046 27213 ft 399 kts
2026-05-03 22:34 -17.44624 -48.15748 26826 ft 397 kts
2026-05-03 22:34 -17.41854 -48.15445 26436 ft 394 kts
2026-05-03 22:35 -17.39166 -48.15151 26039 ft 393 kts
2026-05-03 22:35 -17.36455 -48.14854 25646 ft 391 kts
2026-05-03 22:35 -17.33748 -48.14558 25252 ft 389 kts
2026-05-03 22:35 -17.31058 -48.14263 24856 ft 388 kts
2026-05-03 22:36 -17.28381 -48.13970 24473 ft 386 kts
2026-05-03 22:36 -17.25709 -48.13677 24086 ft 385 kts
2026-05-03 22:36 -17.23049 -48.13386 23702 ft 384 kts
2026-05-03 22:36 -17.20399 -48.13096 23273 ft 382 kts
2026-05-03 22:37 -17.17768 -48.12808 22874 ft 379 kts
2026-05-03 22:37 -17.15148 -48.12521 22489 ft 376 kts
2026-05-03 22:37 -17.12550 -48.12237 22112 ft 373 kts
2026-05-03 22:37 -17.09976 -48.11955 21739 ft 370 kts
2026-05-03 22:38 -17.07424 -48.11676 21381 ft 367 kts
2026-05-03 22:38 -17.04893 -48.11400 21022 ft 364 kts
2026-05-03 22:38 -17.02379 -48.11125 20667 ft 362 kts
2026-05-03 22:38 -16.99926 -48.10857 20324 ft 359 kts
2026-05-03 22:39 -16.97449 -48.10587 19970 ft 357 kts
2026-05-03 22:39 -16.94959 -48.10315 19623 ft 354 kts
2026-05-03 22:39 -16.92514 -48.10049 19277 ft 352 kts
2026-05-03 22:39 -16.90076 -48.09783 18932 ft 350 kts
2026-05-03 22:40 -16.87686 -48.09522 18582 ft 349 kts
2026-05-03 22:40 -16.85279 -48.09259 18227 ft 347 kts
2026-05-03 22:40 -16.82884 -48.08998 17840 ft 345 kts
2026-05-03 22:40 -16.80495 -48.08738 17481 ft 343 kts
2026-05-03 22:41 -16.78134 -48.08489 17137 ft 340 kts
2026-05-03 22:41 -16.75809 -48.08703 16785 ft 335 kts 347°
2026-05-03 22:41 -16.73543 -48.09234 16464 ft 332 kts 347°
2026-05-03 22:41 -16.71297 -48.09770 16124 ft 330 kts 347°
2026-05-03 22:42 -16.69062 -48.10299 15793 ft 328 kts 347°
2026-05-03 22:42 -16.66838 -48.10819 15464 ft 327 kts 348°
2026-05-03 22:42 -16.64625 -48.11330 15138 ft 325 kts 348°
2026-05-03 22:42 -16.62419 -48.11835 14810 ft 324 kts 348°
2026-05-03 22:43 -16.60222 -48.12336 14484 ft 323 kts 349°
2026-05-03 22:43 -16.58030 -48.12833 14135 ft 322 kts 349°
2026-05-03 22:43 -16.55845 -48.13328 13816 ft 321 kts 349°
2026-05-03 22:43 -16.53692 -48.13815 13450 ft 320 kts 349°
2026-05-03 22:44 -16.51521 -48.14306 13107 ft 318 kts 349°
2026-05-03 22:44 -16.49363 -48.14794 12788 ft 316 kts 349°
2026-05-03 22:44 -16.47223 -48.15277 12449 ft 314 kts 349°
2026-05-03 22:44 -16.45085 -48.15760 12131 ft 312 kts 349°
2026-05-03 22:45 -16.42969 -48.16238 11806 ft 311 kts 349°
2026-05-03 22:45 -16.40858 -48.16715 11489 ft 309 kts 349°
2026-05-03 22:45 -16.38758 -48.17189 11173 ft 308 kts 349°
2026-05-03 22:45 -16.36667 -48.17661 10844 ft 306 kts 349°
2026-05-03 22:46 -16.34601 -48.18128 10538 ft 301 kts 349°
2026-05-03 22:46 -16.32589 -48.18582 10334 ft 289 kts 349°
2026-05-03 22:46 -16.30645 -48.19021 10201 ft 282 kts 350°
2026-05-03 22:46 -16.28749 -48.19449 10081 ft 275 kts 350°
2026-05-03 22:47 -16.26878 -48.19869 9848 ft 277 kts 350°
2026-05-03 22:47 -16.24975 -48.20294 9596 ft 282 kts 350°
2026-05-03 22:47 -16.23032 -48.20729 9343 ft 287 kts 350°
2026-05-03 22:47 -16.21103 -48.21162 9093 ft 287 kts 350°
2026-05-03 22:48 -16.19185 -48.21593 8816 ft 278 kts 350°
2026-05-03 22:48 -16.17318 -48.22012 8590 ft 272 kts 350°
2026-05-03 22:48 -16.15473 -48.22371 8351 ft 268 kts 360°
2026-05-03 22:48 -16.13665 -48.22086 8141 ft 260 kts 17°
2026-05-03 22:49 -16.11923 -48.21619 7908 ft 257 kts 17°
2026-05-03 22:49 -16.10196 -48.21164 7690 ft 255 kts 17°
2026-05-03 22:49 -16.09066 -48.20868 7530 ft 252 kts 17°
2026-05-03 22:49 -16.06802 -48.20280 7125 ft 247 kts 17°
2026-05-03 22:50 -16.05165 -48.19859 6914 ft 238 kts 17°
2026-05-03 22:50 -16.03589 -48.19455 6708 ft 229 kts 17°
2026-05-03 22:50 -16.02071 -48.19066 6509 ft 220 kts 17°
2026-05-03 22:50 -16.00612 -48.18693 6321 ft 211 kts 17°
2026-05-03 22:51 -15.99230 -48.18344 6125 ft 203 kts 15°
2026-05-03 22:51 -15.97833 -48.18317 5948 ft 200 kts 358°
2026-05-03 22:51 -15.96448 -48.18442 5803 ft 200 kts 359°
2026-05-03 22:51 -15.95084 -48.18546 5607 ft 197 kts
2026-05-03 22:52 -15.93723 -48.18452 5468 ft 190 kts 28°
2026-05-03 22:52 -15.92815 -48.17571 5472 ft 183 kts 62°
2026-05-03 22:52 -15.92171 -48.16461 5469 ft 173 kts 62°
2026-05-03 22:52 -15.91575 -48.15436 5449 ft 160 kts 63°
2026-05-03 22:53 -15.91011 -48.14458 5436 ft 156 kts 63°
2026-05-03 22:53 -15.90457 -48.13495 5442 ft 155 kts 62°
2026-05-03 22:53 -15.89909 -48.12543 5465 ft 153 kts 63°
2026-05-03 22:53 -15.89382 -48.11594 5466 ft 153 kts 69°
2026-05-03 22:54 -15.89201 -48.10541 5441 ft 144 kts 87°
2026-05-03 22:54 -15.89135 -48.09868 5393 ft 138 kts 85°
2026-05-03 22:54 -15.89044 -48.08894 5365 ft 135 kts 86°
2026-05-03 22:54 -15.88946 -48.07591 5334 ft 137 kts 88°
2026-05-03 22:55 -15.88900 -48.06927 5295 ft 136 kts 88°
2026-05-03 22:55 -15.88836 -48.05954 5230 ft 135 kts 88°
2026-05-03 22:55 -15.88773 -48.04978 5130 ft 136 kts 88°
2026-05-03 22:55 -15.88710 -48.04006 5099 ft 132 kts 88°
2026-05-03 22:56 -15.88650 -48.03087 5087 ft 128 kts 88°
2026-05-03 22:56 -15.88591 -48.02162 5046 ft 131 kts 88°
2026-05-03 22:56 -15.88530 -48.01218 4897 ft 130 kts 88°
2026-05-03 22:56 -15.88469 -48.00277 4736 ft 130 kts 88°
2026-05-03 22:57 -15.88409 -47.99337 4558 ft 131 kts 88°
2026-05-03 22:57 -15.88347 -47.98380 4372 ft 133 kts 87°
2026-05-03 22:57 -15.88285 -47.97418 4229 ft 135 kts 87°
2026-05-03 22:57 -15.88222 -47.96430 4043 ft 138 kts 88°
2026-05-03 22:58 -15.88159 -47.95437 3834 ft 138 kts 89°
2026-05-03 22:58 -15.88091 -47.94442 3606 ft 137 kts 88°
2026-05-03 22:58 -15.88028 -47.93468 3480 ft 128 kts 88°
2026-05-03 22:58 -15.87979 -47.92682 3475 ft 87 kts 86°
2026-05-03 22:59 -15.87948 -47.92212 3473 ft 46 kts 86°
2026-05-03 22:59 -15.87916 -47.91895 3471 ft 42 kts 70°
2026-05-03 22:59 -15.87804 -47.91693 3469 ft 0 kts 57°
2026-05-03 23:00 -15.87796 -47.91680 3468 ft 10 kts 57°
2026-05-03 23:01 -15.87741 -47.91591 3469 ft 16 kts 56°
2026-05-03 23:01 -15.87647 -47.91554 3469 ft 15 kts 357°
2026-05-03 23:01 -15.87544 -47.91560 3469 ft 14 kts 355°
2026-05-03 23:01 -15.87447 -47.91568 3469 ft 14 kts 356°
2026-05-03 23:02 -15.87353 -47.91575 3469 ft 13 kts 356°
2026-05-03 23:02 -15.87263 -47.91581 3469 ft 13 kts 356°
2026-05-03 23:02 -15.87175 -47.91586 3468 ft 12 kts 357°
2026-05-03 23:02 -15.87089 -47.91591 3469 ft 13 kts 356°
2026-05-03 23:03 -15.87004 -47.91600 3469 ft 12 kts 338°
2026-05-03 23:03 -15.86990 -47.91674 3469 ft 12 kts 227°
2026-05-03 23:03 -15.87056 -47.91719 3469 ft 12 kts 244°
2026-05-03 23:03 -15.87085 -47.91775 3469 ft 7 kts 196°
2026-05-03 23:04 -15.87121 -47.91775 3469 ft 0 kts 178°